Date String (YYYY-MM-DD hh:mm:ss) UTC,Instrument flags,absolute air pressure of the measurement (hPa),sample flow rate (lpm),inlet stack bypass flow (lpm),air temperature of the measurement (°C),ambient temperature measured by the external sensor (°C),aerosol sample conditioner tube jacket temperature (°C),OPC LED temperature (°C),internal box temperature (°C),relative humidity of the measurement (%),span deviation,mass concentration of particles derived from Lorenz-Mie calculation of OPC scattering (μg/m³),mass concentration of particles derived from Lorenz-Mie calculation of OPC scattering (μg/m³),mass concentration of particles derived from Lorenz-Mie calculation of OPC scattering (μg/m³)
DateTimeUTC,F1_M11,P_M11,Q1_M11,Q2_M11,T1_M11,T2_M11,T3_M11,T4_M11,T5_M11,U1_M11,ZSPAN_M11,X0_M11,X2_M11,X1_M11
2024-03-07 12:00:00,SystemResetWarning,0821.8,5.01,000.00,018.9,018.2,000.0,027.5,020.7,23.7,0000.0,0009.52,0002.99,0001.79
2024-03-07 12:01:00,SystemResetWarning,0821.8,5.00,000.00,018.9,018.2,000.0,027.5,020.7,23.7,0000.0,0009.56,0002.94,0001.78
2024-03-07 12:02:00,SystemResetWarning,0821.8,5.00,000.00,018.9,018.2,000.0,027.5,020.7,23.7,0000.0,0009.39,0002.86,0001.77
2024-03-07 12:03:00,SystemResetWarning,0821.8,4.99,000.00,018.9,018.2,000.0,027.5,020.7,23.7,0000.0,0009.24,0002.80,0001.77
2024-03-07 12:04:00,SystemResetWarning,0821.8,4.99,000.00,018.9,018.2,000.0,027.5,020.7,23.7,0000.0,0009.21,0002.78,0001.77
2024-03-07 12:05:00,SystemResetWarning,0821.8,5.00,000.00,018.9,018.2,000.0,027.5,020.7,23.8,0000.0,0009.60,0002.76,0001.76
2024-03-07 12:06:00,SystemResetWarning,0821.8,5.01,000.00,018.9,018.2,000.0,027.5,020.7,23.8,0000.0,0010.83,0002.78,0001.79
2024-03-07 12:07:00,SystemResetWarning,0821.8,5.01,000.00,018.9,018.2,000.0,027.5,020.7,23.9,0000.0,0010.63,0002.75,0001.80
2024-03-07 12:08:00,SystemResetWarning,0821.8,5.01,000.00,018.9,018.2,000.0,027.5,020.7,23.9,0000.0,0011.49,0002.80,0001.85
2024-03-07 12:09:00,SystemResetWarning,0821.8,4.99,000.00,018.9,018.2,000.0,027.5,020.7,24.0,0000.0,0011.39,0002.98,0001.90
2024-03-07 12:10:00,SystemResetWarning,0821.8,5.00,000.00,018.9,018.2,000.0,027.5,020.7,24.0,0000.0,0010.69,0003.11,0001.95
2024-03-07 12:11:00,SystemResetWarning,0821.8,5.00,000.00,018.9,018.2,000.0,027.5,020.7,24.0,0000.0,0010.96,0003.12,0001.99
2024-03-07 12:12:00,SystemResetWarning,0821.8,5.00,000.00,018.9,018.2,000.0,027.4,020.7,24.1,0000.0,0010.77,0003.15,0002.03
2024-03-07 12:13:00,SystemResetWarning,0821.8,5.00,000.00,018.9,018.2,000.0,027.4,020.6,24.1,0000.0,0010.78,0003.18,0002.06
2024-03-07 12:14:00,SystemResetWarning,0821.8,5.00,000.00,018.9,018.2,000.0,027.4,020.6,24.1,0000.0,0010.88,0003.19,0002.09
2024-03-07 12:15:00,SystemResetWarning,0821.8,5.01,000.00,018.9,018.2,000.0,027.4,020.6,24.2,0000.0,0010.93,0003.23,0002.12
2024-03-07 12:16:00,SystemResetWarning,0821.8,5.01,000.00,018.9,018.1,000.0,027.4,020.6,24.2,0000.0,0010.99,0003.25,0002.15
2024-03-07 12:17:00,SystemResetWarning,0821.8,5.00,000.00,018.9,018.1,000.0,027.4,020.6,24.2,0000.0,0010.10,0003.24,0002.16
2024-03-07 12:18:00,SystemResetWarning,0821.8,4.99,000.00,018.9,018.1,000.0,027.4,020.6,24.2,0000.0,0010.73,0003.26,0002.17
2024-03-07 12:19:00,SystemResetWarning,0821.8,4.98,000.00,018.8,018.1,000.0,027.4,020.6,24.2,0000.0,0010.53,0003.26,0002.16
2024-03-07 12:20:00,SystemResetWarning,0821.8,5.00,000.00,018.8,018.1,000.0,027.4,020.6,24.3,0000.0,0010.15,0003.22,0002.16
2024-03-07 12:21:00,SystemResetWarning,0821.9,5.01,000.00,018.8,018.1,000.0,027.4,020.6,24.3,0000.0,0010.04,0003.19,0002.14
2024-03-07 12:22:00,SystemResetWarning,0821.9,5.00,000.00,018.8,018.1,000.0,027.4,020.6,24.3,0000.0,0010.43,0003.22,0002.15
2024-03-07 12:23:00,SystemResetWarning,0821.9,5.00,000.00,018.8,018.1,000.0,027.4,020.6,24.4,0000.0,0011.61,0003.25,0002.17
2024-03-07 12:24:00,SystemResetWarning,0821.9,5.00,000.00,018.8,018.1,000.0,027.4,020.6,24.4,0000.0,0012.80,0003.31,0002.20
2024-03-07 12:25:00,SystemResetWarning,0821.9,5.00,000.00,018.8,018.1,000.0,027.4,020.6,24.4,0000.0,0013.70,0003.34,0002.24
2024-03-07 12:26:00,SystemResetWarning,0821.9,5.00,000.00,018.8,018.1,000.0,027.4,020.6,24.4,0000.0,0014.39,0003.37,0002.29
2024-03-07 12:27:00,SystemResetWarning,0821.9,5.00,000.00,018.8,018.1,000.0,027.4,020.6,24.5,0000.0,0015.10,0003.49,0002.35
2024-03-07 12:28:00,SystemResetWarning,0821.9,4.99,000.00,018.8,018.1,000.0,027.4,020.6,24.5,0000.0,0014.96,0003.56,0002.42
2024-03-07 12:29:00,SystemResetWarning,0821.9,5.00,000.00,018.8,018.1,000.0,027.4,020.6,24.5,0000.0,0014.61,0003.61,0002.49
2024-03-07 12:30:00,SystemResetWarning,0821.9,5.00,000.00,018.8,018.1,000.0,027.4,020.6,24.5,0000.0,0014.41,0003.66,0002.55
2024-03-07 12:31:00,SystemResetWarning,0821.9,5.00,000.00,018.8,018.1,000.0,027.4,020.6,24.5,0000.0,0014.48,0003.70,0002.60
2024-03-07 12:32:00,SystemResetWarning,0821.9,5.00,000.00,018.8,018.1,000.0,027.4,020.6,24.5,0000.0,0014.24,0003.74,0002.67
2024-03-07 12:33:00,SystemResetWarning,0821.9,5.00,000.00,018.8,018.1,000.0,027.4,020.6,24.6,0000.0,0013.37,0003.78,0002.73
2024-03-07 12:34:00,SystemResetWarning,0821.8,5.00,000.00,018.8,018.1,000.0,027.4,020.6,24.6,0000.0,0012.48,0003.83,0002.80
2024-03-07 12:35:00,SystemResetWarning,0821.8,5.00,000.00,018.8,018.1,000.0,027.4,020.6,24.5,0000.0,0011.95,0003.86,0002.85
2024-03-07 12:36:00,SystemResetWarning,0821.8,5.00,000.00,018.8,018.1,000.0,027.4,020.6,24.5,0000.0,0012.55,0003.90,0002.90
2024-03-07 12:37:00,SystemResetWarning,0821.8,5.00,000.00,018.8,018.1,000.0,027.4,020.6,24.5,0000.0,0012.19,0003.93,0002.96
2024-03-07 12:38:00,SystemResetWarning,0821.8,5.00,000.00,018.8,018.0,000.0,027.4,020.6,24.5,0000.0,0011.39,0003.88,0002.99
2024-03-07 12:39:00,SystemResetWarning,0821.8,5.00,000.00,018.8,018.0,000.0,027.4,020.6,24.5,0000.0,0011.21,0003.91,0003.02
2024-03-07 12:40:00,SystemResetWarning,0821.8,4.99,000.00,018.8,018.0,000.0,027.4,020.5,24.4,0000.0,0012.46,0003.97,0003.06
2024-03-07 12:41:00,SystemResetWarning,0821.8,4.99,000.00,018.8,018.0,000.0,027.3,020.5,24.4,0000.0,0012.73,0004.01,0003.09
2024-03-07 12:42:00,SystemResetWarning,0821.8,5.01,000.00,018.8,018.1,000.0,027.3,020.5,24.4,0000.0,0012.70,0004.02,0003.12
2024-03-07 12:43:00,SystemResetWarning,0821.9,5.01,000.00,018.8,018.1,000.0,027.3,020.5,24.4,0000.0,0012.65,0004.06,0003.15
2024-03-07 12:44:00,SystemResetWarning,0821.9,5.01,000.00,018.8,018.0,000.0,027.3,020.5,24.4,0000.0,0013.02,0004.10,0003.18
2024-03-07 12:45:00,SystemResetWarning,0821.9,5.00,000.00,018.8,018.0,000.0,027.3,020.5,24.4,0000.0,0013.77,0004.10,0003.19
2024-03-07 12:46:00,SystemResetWarning,0821.9,4.99,000.00,018.8,018.0,000.0,027.3,020.5,24.4,0000.0,0013.72,0004.12,0003.21
2024-03-07 12:47:00,SystemResetWarning,0821.9,4.99,000.00,018.8,018.0,000.0,027.3,020.5,24.4,0000.0,0012.76,0004.15,0003.23
2024-03-07 12:48:00,SystemResetWarning,0821.9,5.00,000.00,018.8,018.0,000.0,027.3,020.5,24.5,0000.0,0012.69,0004.20,0003.24
2024-03-07 12:49:00,SystemResetWarning,0822.0,5.01,000.00,018.7,018.0,000.0,027.3,020.5,24.5,0000.0,0012.92,0004.25,0003.26
2024-03-07 12:50:00,SystemResetWarning,0822.0,5.01,000.00,018.7,018.0,000.0,027.3,020.5,24.5,0000.0,0012.79,0004.25,0003.27
2024-03-07 12:51:00,SystemResetWarning,0822.0,5.00,000.00,018.7,018.0,000.0,027.3,020.5,24.5,0000.0,0012.10,0004.25,0003.28
2024-03-07 12:52:00,SystemResetWarning,0822.0,4.99,000.00,018.7,018.0,000.0,027.3,020.5,24.5,0000.0,0012.89,0004.27,0003.30
2024-03-07 12:53:00,SystemResetWarning,0822.0,4.99,000.00,018.7,018.0,000.0,027.3,020.5,24.5,0000.0,0013.69,0004.29,0003.30
2024-03-07 12:54:00,SystemResetWarning,0821.9,4.99,000.00,018.7,018.0,000.0,027.3,020.5,24.6,0000.0,0014.45,0004.30,0003.30
2024-03-07 12:55:00,SystemResetWarning,0821.9,5.00,000.00,018.7,018.0,000.0,027.3,020.5,24.6,0000.0,0014.13,0004.26,0003.29
2024-03-07 12:56:00,SystemResetWarning,0822.0,5.00,000.00,018.7,018.0,000.0,027.3,020.5,24.6,0000.0,0013.34,0004.24,0003.30
2024-03-07 12:57:00,SystemResetWarning,0822.0,5.00,000.00,018.7,018.0,000.0,027.3,020.4,24.6,0000.0,0012.80,0004.29,0003.30
2024-03-07 12:58:00,SystemResetWarning,0822.0,5.01,000.00,018.7,017.9,000.0,027.3,020.5,24.7,0000.0,0012.53,0004.31,0003.31
2024-03-07 12:59:00,SystemResetWarning,0822.0,5.00,000.00,018.7,017.9,000.0,027.3,020.4,24.7,0000.0,0012.45,0004.34,0003.31
